Regional Weather Roundup
Issued by NWS

Home | Current Version | Previous Version | Text Only | Print | Product List | Glossary Off
Versions: 1 2 3 4 5 6 7 8 9 10 11 12 13 14 15 16 17 18 19 20 21 22 23 24 25 26 27 28 29 30 31 32 33 34 35 36 37 38 39 40 41 42 43 44 45 46 47 48 49 50

000
ASUS44 KMEG 220300
RWRTN
TENNESSEE HOURLY STATE WEATHER ROUNDUP
NATIONAL WEATHER SERVICE MEMPHIS TN
1000 PM CDT THU SEP 21 2017

TNZ002-004-019-021-049-052-054-088>092-220400-
WEST TENNESSEE

CITY           SKY/WX    TMP DP  RH WIND       PRES   REMARKS
MEMPHIS INTL   PTCLDY    80  70  71 CALM      30.01R
NWS MEMPHIS      N/A     75 N/A N/A MISG        N/A
JACKSON        CLEAR     74  72  93 CALM      30.02S
DYERSBURG      CLEAR     77  72  84 CALM      30.03R
$$

TNZ008-025-027-028-033-062-065-066-220400-
NORTH MIDDLE TENNESSEE

CITY           SKY/WX    TMP DP  RH WIND       PRES   REMARKS
NASHVILLE      CLEAR     74  71  91 SE3       30.06R
CLARKSVILLE    CLEAR     72  69  90 CALM      30.04R
SMYRNA           N/A    N/A N/A N/A MISG        N/A
CROSSVILLE     CLEAR     66  64  93 CALM      30.13R
$$

TNZ061-075-076-078-094-096-097-220400-
SOUTH MIDDLE TENNESSEE

CITY           SKY/WX    TMP DP  RH WIND       PRES   REMARKS
TULLAHOMA      CLEAR     64  64 100 CALM      30.08R
WINCHESTER     CLEAR     68  68 100 CALM      30.07R
MCMINNVILLE    PTCLDY    70  70 100 CALM      30.08R
$$

TNZ017-018-042-046-047-220400-
NORTHEAST TENNESSEE

CITY           SKY/WX    TMP DP  RH WIND       PRES   REMARKS
TRI CITIES     CLEAR     66  64  93 CALM      30.11R
$$

TNZ012-013-036-069-073-074-220400-
CENTRAL EAST TENNESSEE

CITY           SKY/WX    TMP DP  RH WIND       PRES   REMARKS
KNOXVILLE      CLEAR     73  64  73 N6        30.06R
OAK RIDGE      CLEAR     71  67  87 CALM      30.09R
GATLINBURG     CLEAR     68  63  83 CALM      30.07S
$$

TNZ083-085-099-220400-
SOUTHEAST TENNESSEE

CITY           SKY/WX    TMP DP  RH WIND       PRES   REMARKS
CHATTANOOGA    CLEAR     74  68  81 CALM      30.06R
$$

SKY/WX REPORTED AS FAIR MEANS FEW OR NO CLOUDS BELOW
12 THOUSAND FEET.





USA.gov is the U.S. government's official web portal to all federal, state and local government web resources and services.